Content
SEND FEEDBACK

Daily
Averages
Monthly
Summary
United States of America

EMPORIA, KANSAS


Home > North America > United States > Kansas
Elevation: 1204 feet     Latitude: 38 19N     Longitude: 096 11W

WEATHER
 
SELECT A DAY
Number of Records: 202,066;   Date Range: 1/1/95 - 12/18/14
 
SHARE

PRINT THIS DATA

[ ← Previous Day ]
WEATHER ALMANAC - FEBRUARY 18, 2013
[ Next Day → ]
[ °C ]   °F
Weather ElementAverageHighLow
Temperature43.2 °F54 °F (1:53 am)25 °F (11:53 pm)
Dewpoint28.8 °F43 °F (8:53 am)16 °F (10:53 pm)
Humidity57.5 %74 % (8:53 am)41 % (1:53 am)
Barometer29.78 in30.16 in (11:53 pm)29.48 in (4:53 am)
Wind Speed20.5 mph32.2 mph (3:53 am)
Wind Gust44.9 mph (4:53 am)
Weather ElementAverage
Visibility10 mi
Wind DirectionWNW (284.2 °)

Weather ElementTotal
Precipitation---
Heating Degree Days25.5 (Base 65)
Averaged from 24 records on February 18, 2013
WEATHER CONDITIONS BREAKOUT
WIND DIRECTION BREAKOUT
WEATHER BY HOUR - FEBRUARY 18, 2013
[ °C ]   °F
Local TimeTemperatureDewpointHumidityBarometerVisibilityWind DirectionWind SpeedGust SpeedPrecipitationEventsConditions
1:53 AM54.0 °F30.9 °F41 %29.54 in10.0 miSouth (180°)31.1 mph41.4 mphClear
2:53 AM54.0 °F33.1 °F45 %29.51 in10.0 miSouth (180°)28.8 mph43.7 mphClear
3:53 AM54.0 °F35.1 °F49 %29.49 in10.0 miSouth (180°)32.2 mph40.3 mphClear
4:53 AM54.0 °F37.0 °F53 %29.48 in10.0 miSouth (180°)31.1 mph44.9 mphClear
5:53 AM52.0 °F39.9 °F63 %29.50 in10.0 miSouth (190°)25.3 mph32.2 mphClear
6:53 AM51.1 °F42.1 °F71 %29.52 in10.0 miSouth (190°)20.7 mph28.8 mphClear
8:53 AM51.1 °F43.0 °F74 %29.56 in10.0 miSSW (200°)10.4 mphOvercast
9:53 AM54.0 °F35.1 °F49 %29.57 in10.0 miWSW (240°)13.8 mph20.7 mphPartly Cloudy
10:18 AM46.4 °F33.8 °F62 %29.60 in10.0 miNorth (360°)20.7 mph31.1 mphMostly Cloudy
10:53 AM46.0 °F32.0 °F58 %29.64 in10.0 miNorth (350°)19.6 mph35.7 mphOvercast
11:53 AM46.9 °F30.9 °F54 %29.71 in10.0 miNNW (330°)31.1 mph40.3 mphOvercast
12:53 PM48.0 °F30.0 °F50 %29.74 in10.0 miNorth (350°)28.8 mph41.4 mphOvercast
1:53 PM44.1 °F30.0 °F58 %29.79 in10.0 miNNW (340°)29.9 mph40.3 mphMostly Cloudy
2:53 PM41.0 °F30.9 °F67 %29.83 in10.0 miNW (320°)27.6 mph36.8 mphOvercast
3:37 PM41.0 °F26.6 °F57 %29.84 in10.0 miNNW (330°)24.2 mph36.8 mphOvercast
3:53 PM41.0 °F26.1 °F55 %29.87 in10.0 miNNW (330°)24.2 mph35.7 mphOvercast
4:53 PM42.1 °F24.1 °F49 %29.90 in10.0 miNNW (330°)24.2 mph35.7 mphClear
5:53 PM37.9 °F21.9 °F53 %29.96 in10.0 miNNW (330°)16.1 mph29.9 mphClear
6:53 PM34.0 °F21.0 °F59 %30.02 in10.0 miNW (320°)10.4 mphClear
7:53 PM33.1 °F19.9 °F59 %30.04 in10.0 miNNW (330°)9.2 mphClear
8:53 PM30.9 °F19.0 °F61 %30.09 in10.0 miNNW (330°)13.8 mph19.6 mphClear
9:53 PM30.0 °F17.1 °F59 %30.12 in10.0 miNW (320°)8.1 mphClear
10:53 PM26.1 °F16.0 °F66 %30.14 in10.0 miNNW (340°)5.8 mphClear
11:53 PM25.0 °F16.0 °F69 %30.16 in10.0 miWest (270°)4.6 mphClear
Hourly data recorded from KEMP, located miles away from Emporia, Kansas







STORIES FROM OUR PARTNERS